HIPPARCOS

Satellite information

Favourite Embed

Satellite Type and Status

PAYLOADIN ORBIT

Key statistics

Satellite HIPPARCOS at a glance.

Uptime

13058

Days in orbit

Revolutions

≈ 2.3

Per day

Orbit

GTO

Geostationary Transfer Orbit

Inclination

6.7

Latest

Satellite identification and parameters

Extended collection of information and parameters for HIPPARCOS.

Object identification

Identified? True

Debris? False

Object name: HIPPARCOS

International designator: 1989-062B

Object number (NORAD): 20169

Object ID (CCSDS): 20169

Country: EUROPEAN SPACE AGENCY (ESA)

Current information (Y/N): Y

RCS size: LARGE

Orbital parameters

Period: 636.177 minutes

Inclination: 6.7125 deg

SMA: 24502.612 km

Apoapsis: 35705.199 km

Periapsis: 543.755 km

RAAN: 111.9338 deg

Eccentricy: 0.717504

Argument of periapsis: 39.4379 deg

Mean anomaly: 355.2292 deg

Mean motion: 2.26351925 rev/day

Mean motion (dot): 0.00000037 rev/day2

B* drag term: 0.00025153 1/REarth

Two-line elements (TLE)

Creation date: May 9, 2025, 2:46 a.m.

Reference frame: TEME

Reference center: EARTH

Epoch: May 8, 2025, 6:57 p.m. UTC

TLE line 0: 0 HIPPARCOS

TLE line 1: 1 20169U 89062B 25128.78977189 .00000037 00000-0 25153-3 0 9996

TLE line 2: 2 20169 6.7125 111.9338 7175040 39.4379 355.2292 2.26351925260197

Live tracking on map

Real-time ground track for satellite HIPPARCOS.

In-orbit conjunctions

There are no conjunctions computed for HIPPARCOS, at the moment. Check back to stay up to date, as we update our databases every day.

Go to all conjunctions

Associated space launch

German geostationary communications satellite

HIPPARCOS was lifted into orbit during the mission ‘Ariane 44LP | TV-Sat 2’, on board a Ariane 44LP space rocket.

The launch took place on Aug. 8, 1989, 11:25 p.m. from Ariane Launch Area 2.

For more information about the launch, click the button.

Launch to space Ariane 44LP | TV-Sat 2
Ariane 44LP | TV-Sat 2

Agency: N/A

Status: Launch Successful

Launch date: Aug. 8, 1989, 11:25 p.m. UTC

Rocket: Ariane 44LP

Launch pad: Ariane Launch Area 2

Location: Guiana Space Centre, French Guiana

...

Latest news about this satellite

There are no fresh news available about this satellite. Check back as we update our databases every day.


Newsletter sign-up

Weekly statistics, charts and insights to help you stay on top of the space industry.